Weather reports worldwide

Advertisment
Edinburgh/Gogarbank, United Kingdom (3166): temperature & dewpoint: 10.09.2019 04:00:00 - 16.09.2019 04:00:00 (BST)Edinburgh/Gogarbank, United Kingdom (3166): temperature -20cm & temperature -100cm: 10.09.2019 04:00:00 - 16.09.2019 04:00:00 (BST)Edinburgh/Gogarbank, United Kingdom (3166): wind speed & gusts: 10.09.2019 04:00:00 - 16.09.2019 04:00:00 (BST)Edinburgh/Gogarbank, United Kingdom (3166): wind direction: 10.09.2019 04:00:00 - 16.09.2019 04:00:00 (BST)Edinburgh/Gogarbank, United Kingdom (3166): reduced air pressure: 10.09.2019 04:00:00 - 16.09.2019 04:00:00 (BST)Edinburgh/Gogarbank, United Kingdom (3166): visibility: 10.09.2019 04:00:00 - 16.09.2019 04:00:00 (BST)Edinburgh/Gogarbank, United Kingdom (3166): sunshine duration: 10.09.2019 04:00:00 - 16.09.2019 04:00:00 (BST)Edinburgh/Gogarbank, United Kingdom (3166): precipitation: 10.09.2019 04:00:00 - 16.09.2019 04:00:00 (BST)
Date & Time tt [°C] td [°C] tt -20cm [°C] tt -100cm [°C] ff [km/h] ff [kn] fx [km/h] fx [kn] dd ppp [hPa] vv [km] sd [min] rr [mm]
16.09.2019 04:00:00 5,3 4,2 - - 2 1 - - NW 1022,0 14 0 -
16.09.2019 03:00:00 7,1 5,7 - - 9 5 - - SW 1022,3 14 0 0,0
16.09.2019 02:00:00 7,3 5,8 - - 11 6 - - SW 1022,4 14 0 0,0
16.09.2019 01:00:00 7,2 6,0 - - 9 5 - - WSW 1022,8 13 - 0,0
16.09.2019 00:00:00 8,2 5,8 - - 9 5 - - WSW 1022,5 16 0 0,0
15.09.2019 23:00:00 8,9 5,8 - - 13 7 - - SW 1022,5 18 0 0,0
15.09.2019 22:00:00 9,0 5,0 - - 11 6 - - WSW 1022,3 20 0 0,0
15.09.2019 21:00:00 10,1 4,9 - - 13 7 - - WSW 1022,0 21 0 0,0
15.09.2019 20:00:00 10,8 4,2 - - 9 5 - - SW 1021,9 22 12 0,0
15.09.2019 19:00:00 13,2 3,8 - - 15 8 - - W 1021,2 28 60 0,0
15.09.2019 18:00:00 14,4 3,6 - - 18 10 - - WSW 1021,1 28 60 0,0
15.09.2019 17:00:00 14,7 3,7 - - 24 13 - - W 1021,1 20 60 0,0
15.09.2019 16:00:00 15,2 5,4 - - 21 11 - - W 1021,4 21 54 0,0
15.09.2019 15:00:00 14,7 5,4 - - 21 11 - - W 1022,1 19 12 0,0
15.09.2019 14:00:00 13,7 5,3 - - 18 10 - - W 1022,0 16 0 0,0
15.09.2019 13:00:00 13,0 6,7 - - 18 10 - - W 1022,3 14 0 0,0
15.09.2019 12:00:00 12,7 6,3 - - 22 12 - - W 1021,5 12 0 0,0
15.09.2019 11:00:00 12,5 7,1 - - 28 15 - - WSW 1021,0 13 0 0,0
15.09.2019 10:00:00 11,5 7,3 14,7 14,2 29 16 - - WSW 1020,3 12 0 0,0
15.09.2019 09:00:00 11,1 6,8 - - 24 13 - - WSW 1020,3 12 0 0,0
15.09.2019 08:00:00 10,9 6,5 - - 24 13 - - WSW 1019,8 12 0 0,0
15.09.2019 07:00:00 10,3 7,1 - - 18 10 - - WSW 1019,7 10 0 0,0
15.09.2019 06:00:00 11,3 8,1 - - 26 14 - - W 1019,0 11 0 0,0
15.09.2019 05:00:00 11,7 8,9 - - 15 8 - - W 1019,4 11 0 0,0
15.09.2019 04:00:00 11,6 8,3 - - 22 12 - - WSW 1018,9 12 0 0,0
15.09.2019 03:00:00 11,8 8,8 - - 18 10 - - WSW 1018,3 15 0 0,0
15.09.2019 02:00:00 12,4 9,9 - - 18 10 46 25 WSW 1018,2 40 0 0,0
15.09.2019 01:00:00 12,7 10,0 - - 28 15 - - WSW 1017,8 40 - 0,0
15.09.2019 00:00:00 13,3 11,4 - - 29 16 52 28 WSW 1017,8 50 0 0,2
14.09.2019 23:00:00 15,4 14,1 - - 29 16 46 25 WSW 1016,8 5 0 0,2
14.09.2019 22:00:00 14,6 13,6 - - 31 17 65 35 SW 1016,6 4,6 0 0,0
14.09.2019 21:00:00 15,8 12,3 - - 35 19 55 30 WSW 1016,7 24 0 0,0
14.09.2019 20:00:00 15,7 11,6 - - 28 15 52 28 SW 1017,2 13 0 0,0
14.09.2019 19:00:00 16,1 10,1 - - 28 15 46 25 SW 1018,0 50 0 0,0
14.09.2019 18:00:00 16,3 9,9 - - 24 13 54 29 SW 1018,9 40 0 0,0
14.09.2019 17:00:00 16,8 9,2 - - 35 19 57 31 SW 1019,6 50 0 0,0
14.09.2019 16:00:00 17,5 8,6 - - 28 15 52 28 SW 1020,9 35 6 0,0
14.09.2019 15:00:00 16,5 7,8 - - 31 17 55 30 SW 1021,8 35 0 0,0
14.09.2019 14:00:00 15,8 8,6 - - 29 16 46 25 SW 1023,1 45 0 0,0
14.09.2019 13:00:00 15,6 9,1 - - 28 15 52 28 SW 1024,5 40 6 0,0
14.09.2019 12:00:00 15,0 9,5 - - 26 14 54 29 SW 1025,5 40 0 0,0
14.09.2019 11:00:00 14,5 9,3 - - 26 14 54 29 WSW 1025,9 30 0 0,0
14.09.2019 10:00:00 13,6 8,8 14,7 14,2 29 16 55 30 SW 1026,5 35 0 0,0
14.09.2019 09:00:00 13,1 8,5 - - 22 12 - - SW 1027,4 45 0 0,0
14.09.2019 08:00:00 12,4 8,6 - - 22 12 - - SW 1028,0 26 0 0,0
14.09.2019 07:00:00 12,0 8,6 - - 21 11 - - SW 1029,2 30 0 0,0
14.09.2019 06:00:00 12,3 8,7 - - 21 11 - - SW 1029,8 30 0 0,0
14.09.2019 05:00:00 12,1 8,8 - - 22 12 - - SW 1030,5 25 0 0,0
14.09.2019 04:00:00 12,0 8,2 - - 16 9 - - SW 1031,7 30 0 0,0
14.09.2019 03:00:00 11,3 7,7 - - 5 3 - - WSW 1032,8 28 0 0,0
14.09.2019 02:00:00 11,1 7,6 - - 9 5 - - SSW 1033,8 30 0 0,0
14.09.2019 01:00:00 10,7 8,1 - - 9 5 - - SW 1034,2 20 - 0,0
14.09.2019 00:00:00 11,2 8,5 - - 9 5 - - SW 1034,3 22 0 0,0
13.09.2019 23:00:00 11,3 7,7 - - 9 5 - - SW 1034,6 21 0 0,0
13.09.2019 22:00:00 10,7 7,3 - - 8 4 - - S 1034,6 26 0 0,0
13.09.2019 21:00:00 11,5 6,4 - - 5 3 - - W 1034,6 30 0 0,0
13.09.2019 20:00:00 12,7 7,0 - - 15 8 - - WSW 1034,5 25 6 0,0
13.09.2019 19:00:00 14,4 7,4 - - 18 10 - - W 1034,6 30 42 0,0
13.09.2019 18:00:00 15,6 6,8 - - 21 11 - - W 1034,2 30 42 0,0
13.09.2019 17:00:00 16,0 6,1 - - 21 11 - - W 1033,4 20 48 0,0
13.09.2019 16:00:00 16,9 6,3 - - 26 14 48 26 W 1033,6 21 54 0,0
13.09.2019 15:00:00 15,4 6,4 - - 28 15 - - W 1033,9 45 48 0,0
13.09.2019 14:00:00 17,2 7,9 - - 22 12 - - W 1033,8 15 60 0,0
13.09.2019 13:00:00 16,2 8,4 - - 24 13 - - W 1033,8 17 48 0,0
13.09.2019 12:00:00 15,0 7,5 - - 21 11 - - W 1033,9 18 54 0,0
13.09.2019 11:00:00 14,0 8,2 - - 24 13 - - WSW 1033,6 17 48 0,0
13.09.2019 10:00:00 13,8 8,2 14,7 14,2 18 10 - - WSW 1033,2 40 60 0,0
13.09.2019 09:00:00 12,1 8,2 - - 21 11 - - WSW 1032,7 19 60 0,0
13.09.2019 08:00:00 10,7 8,1 - - 15 8 - - WSW 1032,0 19 36 0,0
13.09.2019 07:00:00 10,0 7,8 - - 18 10 - - WSW 1031,5 22 0 0,0
13.09.2019 06:00:00 10,2 7,7 - - 16 9 - - WSW 1030,7 27 0 0,0
13.09.2019 05:00:00 10,4 7,8 - - 21 11 - - WSW 1029,7 25 0 0,0
13.09.2019 04:00:00 10,5 8,1 - - 21 11 - - WSW 1029,2 22 0 0,0
13.09.2019 03:00:00 10,0 7,8 - - 16 9 - - WSW 1028,8 23 0 0,0
13.09.2019 02:00:00 10,5 7,8 - - 22 12 - - WSW 1028,7 20 0 0,0
13.09.2019 01:00:00 10,1 7,5 - - 18 10 - - WSW 1028,3 21 - 0,0
13.09.2019 00:00:00 10,2 7,4 - - 21 11 - - WSW 1027,5 20 0 0,0
12.09.2019 23:00:00 10,4 7,5 - - 18 10 - - WSW 1027,1 30 0 0,0
12.09.2019 22:00:00 11,4 7,9 - - 21 11 - - W 1026,1 35 0 0,0
12.09.2019 21:00:00 12,2 7,4 - - 16 9 - - W 1025,1 45 0 0,0
12.09.2019 20:00:00 12,9 7,4 - - 16 9 - - W 1023,6 50 24 0,0
12.09.2019 19:00:00 14,9 7,2 - - 18 10 - - W 1022,7 45 60 0,0
12.09.2019 18:00:00 15,9 8,7 - - 24 13 - - W 1021,3 40 36 0,0
12.09.2019 17:00:00 16,4 10,5 - - 22 12 - - W 1020,3 40 30 0,0
12.09.2019 16:00:00 16,3 12,4 - - 18 10 - - W 1019,5 50 0 0,2
12.09.2019 15:00:00 16,0 13,0 - - 16 9 - - W 1018,8 50 0 0,0
12.09.2019 14:00:00 16,4 12,9 - - 16 9 - - W 1018,2 9 0 0,0
12.09.2019 13:00:00 16,0 13,0 - - 13 7 - - W 1017,8 50 0 0,0
12.09.2019 12:00:00 15,3 12,4 - - 16 9 - - WSW 1018,0 40 0 0,0
12.09.2019 11:00:00 15,0 12,0 - - 18 10 - - WSW 1017,9 50 0 0,0
12.09.2019 10:00:00 15,1 12,0 14,9 14,4 16 9 - - SW 1017,6 30 6 0,0
12.09.2019 09:00:00 14,2 11,1 - - 16 9 - - SW 1017,8 50 18 0,0
12.09.2019 08:00:00 12,9 10,7 - - 13 7 - - WSW 1017,9 26 0 0,0
12.09.2019 07:00:00 12,7 10,1 - - 13 7 - - SW 1017,4 27 0 0,0
12.09.2019 06:00:00 12,6 9,9 - - 16 9 - - SW 1017,3 23 0 0,0
12.09.2019 05:00:00 12,6 9,8 - - 16 9 - - SW 1017,3 19 0 0,0
12.09.2019 04:00:00 12,4 9,8 - - 15 8 - - WSW 1017,3 19 0 0,0
12.09.2019 03:00:00 12,6 9,8 - - 16 9 - - WSW 1017,5 21 0 0,0
12.09.2019 02:00:00 12,5 9,6 - - 15 8 - - WSW 1017,1 28 0 0,0
12.09.2019 01:00:00 12,6 9,8 - - 18 10 - - WSW 1017,0 17 - 0,0
12.09.2019 00:00:00 12,6 9,7 - - 16 9 - - SW 1017,1 21 0 0,0
11.09.2019 23:00:00 12,5 9,3 - - 15 8 - - SSW 1016,8 21 0 0,0
11.09.2019 22:00:00 12,9 9,8 - - 16 9 - - SW 1016,6 22 0 0,0
11.09.2019 21:00:00 13,3 9,6 - - 16 9 - - WSW 1016,1 23 0 0,0
11.09.2019 20:00:00 13,9 9,3 - - 22 12 - - WSW 1015,2 30 0 0,0
11.09.2019 19:00:00 14,2 9,5 - - 21 11 - - WSW 1014,5 27 6 0,0
11.09.2019 18:00:00 14,8 9,0 - - 28 15 52 28 WSW 1013,5 40 18 0,0
11.09.2019 17:00:00 15,5 8,8 - - 31 17 55 30 WSW 1012,8 30 30 0,0
11.09.2019 16:00:00 16,5 9,6 - - 31 17 63 34 WSW 1011,9 30 54 0,0
11.09.2019 15:00:00 16,3 10,3 - - 35 19 63 34 W 1011,3 30 18 0,0
11.09.2019 14:00:00 16,4 11,4 - - 26 14 72 39 W 1010,7 35 12 0,0
11.09.2019 13:00:00 16,7 10,8 - - 31 17 57 31 WSW 1009,6 15 42 0,0
11.09.2019 12:00:00 16,1 10,7 - - 34 18 52 28 W 1008,9 18 42 0,0
11.09.2019 11:00:00 15,5 10,2 - - 28 15 - - WSW 1008,6 21 48 0,0
11.09.2019 10:00:00 13,8 11,4 15,0 14,4 21 11 - - WSW 1007,8 16 18 0,0
11.09.2019 09:00:00 14,2 11,0 - - 26 14 - - WSW 1007,0 16 60 0,0
11.09.2019 08:00:00 12,9 11,2 - - 24 13 52 28 WSW 1006,1 20 6 0,4
11.09.2019 07:00:00 12,9 10,3 - - 28 15 50 27 WSW 1005,1 23 0 0,0
11.09.2019 06:00:00 14,3 11,1 - - 34 18 67 36 WSW 1003,9 40 0 0,0
11.09.2019 05:00:00 15,7 14,4 - - 29 16 57 31 SW 1003,0 50 0 0,2
11.09.2019 04:00:00 15,3 14,0 - - 28 15 50 27 SW 1003,4 8 0 0,0
11.09.2019 03:00:00 14,7 13,3 - - 29 16 54 29 SW 1004,1 18 0 0,2
11.09.2019 02:00:00 14,3 13,0 - - 34 18 54 29 SW 1004,5 7 0 1,4
11.09.2019 01:00:00 14,0 12,3 - - 31 17 59 32 SW 1005,5 14 - 0,4
11.09.2019 00:00:00 13,8 11,4 - - 29 16 67 36 SW 1007,5 35 0 0,6
10.09.2019 23:00:00 12,7 10,9 - - 31 17 54 29 SW 1007,9 5 0 0,6
10.09.2019 22:00:00 12,7 10,5 - - 22 12 - - SSW 1008,9 8 0 0,0
10.09.2019 21:00:00 12,2 10,0 - - 15 8 - - SW 1010,2 35 0 0,0
10.09.2019 20:00:00 12,5 8,8 - - 24 13 - - SW 1012,0 30 0 0,0
10.09.2019 19:00:00 13,1 8,2 - - 16 9 - - SSW 1012,8 28 0 0,2
10.09.2019 18:00:00 13,8 7,9 - - 13 7 - - WSW 1013,8 21 0 0,0
10.09.2019 17:00:00 15,0 7,9 - - 21 11 - - WSW 1014,5 19 0 0,0
10.09.2019 16:00:00 14,7 7,8 - - 21 11 - - WSW 1015,2 23 18 0,0
10.09.2019 15:00:00 15,6 6,4 - - 21 11 - - WSW 1016,0 24 48 0,0
10.09.2019 14:00:00 15,9 9,8 - - 16 9 - - WSW 1016,3 35 30 0,0
10.09.2019 13:00:00 14,5 10,7 - - 15 8 - - W 1016,6 40 0 0,0
10.09.2019 12:00:00 13,7 12,1 - - 8 4 - - W 1017,1 50 0 0,0
10.09.2019 11:00:00 12,3 11,8 - - 9 5 - - SW 1017,7 2,7 0 0,2
10.09.2019 10:00:00 12,2 11,9 14,9 14,4 5 3 - - S 1017,9 5 0 0,4
10.09.2019 09:00:00 11,4 11,0 - - 5 3 - - SE 1017,7 3,8 0 1,2
10.09.2019 08:00:00 11,5 11,3 - - 4 2 - - WNW 1017,3 2,0 0 0,2
10.09.2019 07:00:00 11,2 11,0 - - 5 3 - - WSW 1016,7 3,1 0 0,2
10.09.2019 06:00:00 11,4 11,2 - - 5 3 - - WSW 1016,3 2,6 0 0,8
10.09.2019 05:00:00 11,7 11,5 - - 2 1 - - SSW 1016,0 11 0 0,4
10.09.2019 04:00:00 11,9 11,7 - - 9 5 - - NW 1015,7 5 0 1,2

tt = temperature
td = dewpoint
tt -20cm = temperature -20cm
tt -100cm = temperature -100cm
ff = wind speed
fx = gusts
dd = wind direction
ppp = reduced air pressure
vv = visibility
sd = sunshine duration
rr = precipitation

Next stations